CW8593 Gava ES current weather conditions

sailwx.info

Wind from 170 at 8 knots gusting 19

Air temperature 27.2° C
Dewpoint 17.4° C

Last reported at 2014-Jul-23 15:30 UTC.
Time now 2014-Jul-23 16:17 UTC

Location: N 41°18' E 001°60'.
View on Google Maps.

See reports from other nearby stations

  
Tides and Currents Weather Stations Pressure Air Temp Water Temp Dewpoint Dewpoint Depression Visibility Wind Speed Wind Dir Waves Ship Positions
date/time (UTC)wind fromknots sea level pressurealtimeterstation pressurevisibilityair tempwater tempwave heightnotes
2014-Jul-23 15:30 170 8 gusting 19 27.2
2014-Jul-23 15:10 189 10 gusting 17 26.7
2014-Jul-23 14:40 189 8 gusting 13 27.2
2014-Jul-23 14:30 195 8 gusting 15 27.2
2014-Jul-23 14:10 175 7 gusting 17 26.7
2014-Jul-23 14:00 209 4 gusting 13 27.2
2014-Jul-23 13:40 191 7 gusting 14 26.7
2014-Jul-23 13:10 192 6 gusting 18 27.2
2014-Jul-23 13:00 169 8 gusting 17 27.2
2014-Jul-23 12:40 191 7 gusting 18 26.1
2014-Jul-23 12:10 180 5 gusting 13 26.7
2014-Jul-23 12:00 163 6 gusting 15 26.1
2014-Jul-23 11:40 184 7 gusting 15 26.1
2014-Jul-23 11:30 214 5 gusting 17 26.1
2014-Jul-23 11:10 240 7 gusting 15 25.6
2014-Jul-23 10:40 176 6 gusting 13 25.6
2014-Jul-23 10:10 199 5 gusting 11 25.6
2014-Jul-23 09:40 130 4 gusting 10 26.1
2014-Jul-23 09:30 155 4 gusting 10 26.1
2014-Jul-23 09:10 160 3 gusting 10 26.1
2014-Jul-23 09:00 126 4 gusting 7 26.1
2014-Jul-23 08:40 208 1 gusting 6 26.1
2014-Jul-23 08:30 146 4 gusting 6 26.1
2014-Jul-23 08:10 137 3 gusting 7 25.6
2014-Jul-23 08:00 140 4 gusting 6 25.6
2014-Jul-23 07:30 072 1 gusting 4 25.0
2014-Jul-23 06:40 271 25.0
2014-Jul-23 06:10 271 23.3
2014-Jul-23 06:00 271 23.3
2014-Jul-23 05:40 271 21.7
2014-Jul-23 05:10 271 20.6
2014-Jul-23 04:40 264 1 gusting 4 21.1
2014-Jul-23 03:30 186 20.0
2014-Jul-23 03:00 186 20.0
2014-Jul-23 02:10 186 20.6
2014-Jul-23 01:40 186 20.6
2014-Jul-23 01:10 186 20.6
2014-Jul-23 01:00 186 21.1
2014-Jul-23 00:40 186 21.1
2014-Jul-23 00:30 186 21.1
2014-Jul-23 00:10 186 21.1
2014-Jul-22 23:40 178 0 gusting 2 21.1
2014-Jul-22 23:30 178 1 gusting 2 21.1
2014-Jul-22 23:00 173 22.2
2014-Jul-22 22:30 173 22.2
2014-Jul-22 22:10 173 22.2
2014-Jul-22 22:00 173 22.8
2014-Jul-22 21:40 173 22.8
2014-Jul-22 21:30 173 22.8
2014-Jul-22 21:10 173 22.8
2014-Jul-22 20:40 173 22.8
2014-Jul-22 20:30 173 0 gusting 1 23.3
2014-Jul-22 19:40 173 24.4
2014-Jul-22 19:30 173 24.4
2014-Jul-22 19:10 172 0 gusting 5 24.4
2014-Jul-22 18:40 155 4 gusting 6 25.0
2014-Jul-22 18:10 177 2 gusting 10 26.1
2014-Jul-22 18:00 184 4 gusting 10 26.1
2014-Jul-22 17:30 225 4 gusting 7 26.7
2014-Jul-22 17:00 184 2 gusting 7 27.2
2014-Jul-22 16:40 187 2 gusting 8 27.2
2014-Jul-22 16:30 230 4 gusting 10 27.2
2014-Jul-22 16:00 169 4 gusting 11 27.2
2014-Jul-22 15:30 175 5 gusting 12 26.7
2014-Jul-22 15:10 210 5 gusting 15 26.7
2014-Jul-22 14:40 200 3 gusting 11 27.2
2014-Jul-22 14:10 222 3 gusting 12 26.7
2014-Jul-22 13:40 169 6 gusting 14 26.7
2014-Jul-22 13:00 215 6 gusting 15 27.2
2014-Jul-22 12:30 166 3 gusting 12 26.7
2014-Jul-22 12:10 164 5 gusting 12 26.1
2014-Jul-22 12:00 163 4 gusting 11 26.7
2014-Jul-22 11:30 109 2 gusting 10 26.7
2014-Jul-22 11:10 159 7 gusting 11 26.1
2014-Jul-22 11:00 186 5 gusting 10 26.7
2014-Jul-22 10:40 190 2 gusting 8 27.2
2014-Jul-22 10:10 141 3 gusting 7 27.2
2014-Jul-22 10:00 184 4 gusting 8 27.2
2014-Jul-22 09:40 188 4 gusting 8 26.7
2014-Jul-22 09:30 186 5 gusting 7 27.2
2014-Jul-22 09:00 069 5 gusting 11 27.8
2014-Jul-22 08:40 326 1 gusting 7 27.2
2014-Jul-22 08:10 040 0 gusting 6 26.7
2014-Jul-22 08:00 154 0 gusting 2 26.1
2014-Jul-22 07:40 016 26.1
2014-Jul-22 07:10 25.6
2014-Jul-22 07:00 005 0 gusting 2 25.6
2014-Jul-22 06:40 322 25.6
2014-Jul-22 06:30 322 25.0
2014-Jul-22 06:10 322 22.8
2014-Jul-22 06:00 322 22.8
2014-Jul-22 04:10 286 21.1
2014-Jul-22 04:00 286 21.1
2014-Jul-22 03:40 286 20.6
2014-Jul-22 03:10 286 1 gusting 4 20.6
2014-Jul-22 03:00 286 0 gusting 2 20.6
2014-Jul-22 02:30 286 2 gusting 4 21.7
2014-Jul-22 02:10 254 0 gusting 2 21.7
2014-Jul-22 02:00 253 21.1
2014-Jul-22 01:40 221 1 gusting 2 21.1
2014-Jul-22 01:30 219 20.6
2014-Jul-22 01:10 204 0 gusting 1 20.6
2014-Jul-22 01:00 203 20.6
2014-Jul-22 00:10 204 21.1
2014-Jul-22 00:00 204 1 gusting 4 21.1
2014-Jul-21 23:30 090 0 gusting 1 21.7
2014-Jul-21 23:00 090 21.7
2014-Jul-21 22:30 090 21.7
2014-Jul-21 22:10 090 22.2
2014-Jul-21 21:40 090 0 gusting 2 22.8
2014-Jul-21 21:30 090 22.8
2014-Jul-21 21:10 090 22.8
2014-Jul-21 21:00 090 23.3
2014-Jul-21 20:30 090 23.3
2014-Jul-21 20:10 089 0 gusting 4 23.9
2014-Jul-21 20:00 089 1 gusting 6 23.9
2014-Jul-21 19:00 074 0 gusting 6 24.4
2014-Jul-21 18:40 106 5 gusting 6 24.4
2014-Jul-21 18:10 118 5 gusting 8 25.0
2014-Jul-21 18:00 121 5 gusting 8 25.0
2014-Jul-21 17:40 123 4 gusting 8 25.6
2014-Jul-21 17:30 092 4 gusting 8 25.6
2014-Jul-21 16:40 153 5 gusting 10 26.1
2014-Jul-21 16:30 126 3 gusting 10 26.1
2014-Jul-21 16:00 106 5 gusting 10 26.1